EGLL Airport Information

Runway Information
Runway 09L Length 12799 ft width 164 ft
Elevation 79 ft Threshold 1007 ft Heading 90
Runway 27R Length 12799 ft Width 164 ft
Elevation 78 ft Threshold 0 ft Heading 270
Runway 09R Length 12001 ft width 148 ft
Elevation 75 ft Threshold 1013 ft Heading 90
Runway 27L Length 12001 ft Width 148 ft
Elevation 77 ft Threshold 0 ft Heading 270
Airport Frequencies
Type APP Name APP Frequency 119.725 MHZ
Type ATIS Name ATIS Frequency 128.075 MHZ
Type CLD Name CLNC DEL Frequency 121.975 MHZ
Type GND Name GND Frequency 121.7 MHZ
Type TWR Name TWR Frequency 118.475 MHZ
Airport Navaids
Type VOR-DME Name London Frequency 113600 KHZ
Airport Weather Information & NOTAM
ADDS - METARS form results

(1549 UTC 25 June 2018)
 
METAR text: EGLL 251520Z AUTO 36005KT 320V070 9999 NCD 29/06 Q1025 NOSIG
Conditions at: EGLL (LONDON/HEATHROW , GB) observed 1520 UTC 25 June 2018
Temperature: 29.0°C (84°F)
Dewpoint: 6.0°C (43°F) [RH = 23%]
Pressure (altimeter): 30.27 inches Hg (1025.0 mb)
Winds: from the N (360 degrees) at 6 MPH (5 knots; 2.6 m/s)
Visibility: 6 or more miles (10+ km)
Ceiling: at least 12,000 feet AGL
Clouds: sky clear below 12,000 feet AGL
Weather: no significant weather observed at this time

METAR text: EGLL 251450Z AUTO 32004KT 230V050 9999 NCD 29/05 Q1025 NOSIG
Conditions at: EGLL (LONDON/HEATHROW , GB) observed 1450 UTC 25 June 2018
Temperature: 29.0°C (84°F)
Dewpoint: 5.0°C (41°F) [RH = 22%]
Pressure (altimeter): 30.27 inches Hg (1025.0 mb)
Winds: from the NW (320 degrees) at 5 MPH (4 knots; 2.1 m/s)
Visibility: 6 or more miles (10+ km)
Ceiling: at least 12,000 feet AGL
Clouds: sky clear below 12,000 feet AGL
Weather: no significant weather observed at this time